Flag for Belgium Weather past 2 weeks in Brussels, Belgium

Now
86 °F

Clear.


Feels Like: 89 °F
Forecast: 65 / 88 °F
Wind: 12 mph from Northwest

Location: Brussels National Airport

Current Time: Jul 2, 2015 at 3:00:22 PM

Latest Report: Jul 2, 2015 at 2:20 PM


Visibility: 6 mi

Pressure: 30.07 "Hg

Humidity: 55%

Dew point: 68 °F

Location of BrusselsLocation

Historic Weather in Brussels — Graph

°F

Brussels temperature yesterday

Maximum temperature yesterday: 93 °F (at 4:50 PM)
Minimum temperature yesterday: 61 °F (at 3:50 AM)
Average temperature yesterday: 79 °F

Past Weeks' High & Low Weather Summary

 TemperatureHumidityPressure
High93 °F (Jul 1, 4:50 PM)100% (Jun 18, 4:20 AM)30.24 "Hg (Jun 18, 4:20 AM)
Low50 °F (Jun 20, 4:20 AM)30% (Jun 30, 5:50 PM)29.74 "Hg (Jun 22, 5:20 PM)
Average64 °F68%30.08 "Hg
* Reported Jun 17 1:20 PM — Jul 2 1:50 PM, Brussels, Weather by CustomWeather, © 2015

Note: Actual official high and low records may vary slightly from our data, if they occured in-between our weather recording intervals... More about our weather records

Advertising

Brussels weather history for previous 24 hours

 ConditionsComfort  
Time TempWeatherWind HumidityBarometerVisibility
1:50 PM
Thu, Jul 2
88 °FPassing clouds.6 mph52%30.07 "HgN/A
1:20 PM86 °FPassing clouds.5 mph55%30.04 "HgN/A
12:50 PM86 °FPassing clouds.7 mph52%30.07 "HgN/A
12:20 PM86 °FPassing clouds.7 mph52%30.07 "HgN/A
11:50 AM84 °FPassing clouds.5 mph55%30.07 "HgN/A
11:20 AM84 °FPassing clouds.6 mph55%30.04 "HgN/A
10:50 AM82 °FSunny.1 mph58%30.04 "Hg10 mi
10:20 AM82 °FSunny.2 mph58%30.04 "Hg10 mi
9:50 AM81 °FPassing clouds.3 mph62%30.04 "HgN/A
9:20 AM79 °FPassing clouds.5 mph65%30.04 "HgN/A
8:50 AM79 °FPassing clouds.8 mph61%30.04 "HgN/A
8:20 AM79 °FPassing clouds.3 mph65%30.04 "HgN/A
7:50 AM79 °FPassing clouds.3 mph65%30.04 "HgN/A
7:20 AM77 °FPassing clouds.3 mph65%30.04 "HgN/A
6:50 AM75 °FPassing clouds.3 mph69%30.01 "HgN/A
6:20 AM72 °FClear.5 mph73%30.01 "Hg10 mi
5:50 AM70 °FClear.5 mph78%30.01 "Hg10 mi
5:20 AM72 °FClear.6 mph73%30.01 "Hg10 mi
4:50 AM72 °FClear.3 mph73%30.01 "Hg10 mi
4:20 AM72 °FPassing clouds.5 mph65%30.01 "HgN/A
3:50 AM75 °FClear.2 mph61%29.98 "Hg10 mi
3:20 AM79 °FClear.8 mph54%29.98 "Hg10 mi
2:50 AM79 °FClear.9 mph58%29.98 "Hg10 mi
2:20 AM81 °FClear.12 mph51%29.98 "Hg10 mi
1:50 AM81 °FClear.10 mph54%29.98 "Hg10 mi
1:20 AM79 °FClear.8 mph58%29.98 "Hg10 mi
12:50 AM77 °FClear.7 mph61%29.98 "Hg10 mi
12:20 AM77 °FClear.7 mph61%29.98 "Hg10 mi
11:50 PM
Wed, Jul 1
79 °FClear.6 mph58%29.98 "Hg10 mi
10:50 PM81 °FSunny.5 mph54%29.98 "Hg10 mi
10:20 PM82 °FSunny.5 mph51%29.98 "Hg10 mi
9:50 PM84 °FSunny.5 mph48%29.98 "Hg10 mi
9:20 PM86 °FSunny.5 mph46%29.95 "Hg10 mi
8:50 PM88 °FSunny.6 mph43%29.95 "Hg10 mi
8:20 PM90 °FSunny.7 mph38%29.95 "Hg10 mi
7:50 PM91 °FPassing clouds.7 mph34%29.95 "HgN/A
7:20 PM91 °FPassing clouds.8 mph32%29.95 "HgN/A
6:50 PM93 °FPassing clouds.7 mph30%29.95 "HgN/A
6:20 PM93 °FSunny.8 mph32%29.95 "Hg10 mi
5:50 PM93 °FPassing clouds.7 mph32%29.98 "HgN/A
5:20 PM93 °FPassing clouds.7 mph34%29.98 "HgN/A
4:50 PM93 °FPassing clouds.10 mph30%29.98 "HgN/A
4:20 PM91 °FPassing clouds.6 mph32%29.98 "HgN/A
3:50 PM91 °FPassing clouds.7 mph32%29.98 "HgN/A
3:20 PM91 °FPassing clouds.6 mph32%29.98 "HgN/A
Weather by CustomWeather, © 2015

See weather overviewHow to use our weather pages